Погода в Красном Яре

Россия / Астраханская область     46°32′03″N   48°20′56″E
темп.,
°C
ветер,
м/с
пор.,
м/с
влажн.,
%
обл.,
%
осадки,
мм/ч
давл.,
гПа
погр.,
м
17 сентября, пт
пт1701:00+15с5103942 0.0 1016316
04:00+12с3946100 0.0 1017265
07:00+11с3849100 0.0 1018297
10:00+16ссв563891 0.0 1018907
13:00+19ссв442977 0.0 10181344
16:00+20ссв432772 0.0 10161586
19:00+16св33364 0.0 101732
22:00+14св22423 0.0 101818
18 сентября, сб
сб1801:00+12в22446 0.0 101812
04:00+13в2242100 0.0 101831
07:00+13в224380 0.0 101820
10:00+18вюв33305 0.0 1019679
13:00+22в32235 0.0 10181890
16:00+23в32215 0.0 10172264
19:00+16ююв4842100 0.0 1018157
22:00+13ююв345970 0.0 102072
19 сентября, вс
вс1901:00+12ююв226161 0.0 102015
04:00+12вюв23601 0.0 102022
07:00+12в35605 0.0 102084
10:00+21вюв7837100 0.0 10211459
13:00+23юв88315 0.0 10201748
16:00+22вюв8834100 0.0 10201581
19:00+17вюв6115596 0.0 1020550
22:00+16в51357100 0.0 1020425
20 сентября, пн
пн2001:00+17вюв6134797 0.0 1019564
04:00+17вюв7144888 0.0 1019504
07:00+17вюв7134687 0.0 1018540
10:00+22вюв91132100 0.0 1018846
13:00+23вюв81030100 0.0 10181031
16:00+23юв7938100 0.0 10171138
19:00+18вюв596565 0.1 1017302
22:00+16в478127 0.1 1017136
21 сентября, вт
вт2101:00+16вюв348744 0.0 101772
04:00+15в3587100 0.0 101677
07:00+16вюв3584100 0.0 101692
10:00+23ююв5740100 0.0 1016673
13:00+26ююв553498 0.0 10161067
16:00+26ююв5531100 0.0 10151131
19:00+21юв594398 0.0 1016301
22:00+17вюв366389 0.0 1016102